Probability
0 0 0 0 0 0 0 0 0 0 0 0 0 0 0 0 0 0 0 0 0 0 0 0 0 0 0 0 0 0 0 0 0 0 0 0 0 0 0 0 0 0 0
1 0 0 0 0 0 0 0 0 0 0 0 0 0 0 0 0 0 0 0 0 0 0 0 0 0 0 0 0 0 0 0 0 0 0 0 0 0 0 0 0 0 0
2 1 0 0 0 0 0 0 0 0 0 0 0 0 0 0 0 0 0 0 0 0 0 0 0 0 0 0 0 0 0 0 0 0 0 0 0 0 0 0 0 0 0
2 1 0 0 0 0 0 0 0 0 0 0 0 0 0 0 0 0 0 0 0 0 0 0 0 0 0 0 0 0 0 0 0 0 0 0 0 0 0 0 0 0 0
1 0 0 0 0 0 0 0 0 0 0 0 0 0 0 0 0 0 0 0 0 0 0 0 0 0 0 0 0 0 0 0 0 0 0 0 0 0 0 0 0 0 0
1 0 0 0 0 0 0 0 0 0 0 0 0 0 0 0 0 0 0 0 0 0 0 0 0 0 0 0 0 0 0 0 0 0 0 0 0 0 0 0 0 0 0
2 1 0 0 0 0 0 0 0 0 0 0 0 0 0 0 0 0 0 0 0 0 0 0 0 0 0 0 0 0 0 0 0 0 0 0 0 0 0 0 0 0 0
2 1 0 0 0 0 0 0 0 0 0 0 0 0 0 0 0 0 0 0 0 0 0 0 0 0 0 0 0 0 0 0 0 0 0 0 0 0 0 0 0 0 0
2 1 0 1 1 1 1 0 0 0 0 0 0 0 0 0 0 0 0 0 0 0 0 0 0 0 0 0 0 0 0 0 0 0 0 0 0 0 0 0 0 0 0
1 0 0 1 2 3 2 1 0 0 0 0 0 0 0 0 0 0 0 0 0 0 0 0 0 0 0 0 0 0 0 0 0 0 0 0 0 0 0 0 0 0 0
1 0 1 2 3 3 2 1 0 0 0 0 0 0 0 0 0 0 0 0 0 0 0 0 0 0 0 0 0 0 0 0 0 0 0 0 0 0 0 0 0 0 0
1 0 1 2 2 2 1 0 0 0 0 0 0 0 0 0 0 0 0 0 0 0 0 0 0 0 0 0 0 0 0 0 0 0 0 0 0 0 0 0 0 0 0
1 0 0 1 1 1 0 0 0 0 0 0 0 0 0 0 0 0 0 0 0 0 0 0 0 0 0 0 0 0 0 0 0 0 0 0 0 0 0 0 0 0 0
0 0 0 0 0 0 0 0 0 0 0 0 0 0 0 0 0 0 0 0 0 0 0 0 0 0 0 0 0 0 0 0 0 0 0 0 0 0 0 0 0 0 0
0 0 0 0 0 0 0 0 0 0 1 1 1 0 0 0 0 0 0 0 0 0 0 0 0 0 0 0 0 0 0 0 0 0 0 0 0 0 0 0 0 0 0
1 1 0 0 0 0 0 0 0 0 1 2 2 1 0 0 0 0 0 0 0 0 0 0 0 0 0 0 0 0 0 0 0 0 0 0 0 0 0 0 0 0 0
2 1 0 0 0 0 0 0 0 0 0 1 2 1 0 0 0 0 0 0 0 0 0 0 0 0 0 0 0 0 0 0 0 0 0 0 0 0 0 0 0 0 0
1 1 0 0 0 0 0 0 0 1 0 1 2 2 1 1 0 0 0 0 0 0 0 0 0 0 0 0 0 0 0 0 0 0 0 0 0 0 0 0 0 0 0
0 0 0 0 0 0 0 0 0 0 0 0 1 2 2 2 1 0 0 0 0 0 0 0 0 0 0 0 0 0 0 0 0 0 0 0 0 0 0 0 0 0 0
0 0 0 0 0 0 0 0 0 0 0 0 0 1 2 2 1 0 0 0 0 0 0 0 0 0 0 0 0 0 0 0 0 0 0 0 0 0 0 0 0 0 0
0 0 0 0 0 0 0 0 0 0 0 0 0 0 1 2 2 0 0 0 0 0 0 0 0 0 0 0 0 0 0 0 0 0 0 0 0 0 0 0 0 0 0
0 0 0 0 0 0 0 0 0 0 0 0 0 0 1 2 1 0 0 0 0 0 0 0 0 0 0 0 0 0 0 0 0 0 0 0 0 0 0 0 0 0 0
0 0 0 0 0 0 0 0 0 0 0 0 0 1 2 2 1 0 0 0 0 0 0 0 0 0 0 0 0 0 0 0 0 0 0 0 0 0 0 0 0 0 0
0 0 0 0 0 0 0 0 0 0 0 0 0 1 2 1 0 0 0 0 0 0 0 0 0 0 0 0 0 0 0 0 0 0 0 0 0 0 0 0 0 0 0
0 0 0 0 0 0 0 0 0 0 0 0 0 1 1 0 0 0 0 0 0 0 0 0 0 0 0 0 0 0 0 0 0 0 0 0 0 0 0 0 0 0 0
0 0 0 0 0 0 0 0 0 0 0 0 0 0 0 0 0 0 0 0 0 0 0 0 0 0 0 0 0 0 0 0 0 0 0 0 0 0 0 0 0 0 0
Wind_Speed
6 6 6 6 6 5 5 5 5 4 3 3 3 2 2 1 2 2 3 3 3 4 4 3 3 3 3 3 3 3 4 3 2 3 3 4 4 4 3 3 3 3 3
5 5 6 6 6 7 6 5 5 4 4 2 2 2 2 2 1 1 3 3 3 3 3 3 3 3 3 4 3 3 2 2 2 2 3 3 4 4 4 3 3 3 3
10 8 7 7 7 7 7 6 5 5 4 4 3 3 3 3 3 2 2 2 3 3 3 4 3 3 3 2 2 3 3 2 2 2 3 3 1 1 3 4 3 3 3
9 8 8 8 8 8 7 6 6 5 5 5 4 4 3 2 1 1 1 2 3 3 4 4 4 3 2 2 2 2 2 3 1 1 1 2 3 3 1 3 3 3 3
10 10 9 9 8 8 7 7 6 5 5 5 6 5 3 2 1 1 2 2 2 3 3 3 3 3 2 2 3 3 3 2 2 1 1 2 2 2 3 1 2 3 3
9 9 8 7 6 6 6 6 6 5 5 5 6 6 5 4 4 2 2 1 1 2 3 3 3 3 2 2 2 3 3 2 3 2 2 2 2 1 2 2 0 1 2
9 8 8 8 7 7 7 6 7 6 5 5 5 6 6 6 5 4 3 2 1 1 1 2 2 2 2 2 3 3 3 3 3 2 2 1 1 1 2 3 1 1 1
9 10 10 9 8 8 8 7 7 6 6 6 5 5 5 4 3 4 3 3 2 2 2 2 3 3 3 4 4 3 3 3 3 3 2 2 1 1 2 3 3 2 2
9 9 9 9 9 9 9 9 8 7 6 6 5 5 5 5 4 4 3 2 2 2 3 3 3 3 3 4 4 3 3 3 3 3 3 2 2 2 2 2 3 4 2
9 8 8 8 8 8 7 7 8 7 6 6 6 5 5 5 5 4 4 3 3 3 4 4 3 3 3 4 4 3 3 4 3 2 4 3 2 2 2 2 2 2 3
9 9 8 7 7 6 6 7 7 6 6 6 5 5 5 4 4 4 4 4 3 4 4 4 4 3 3 3 4 3 3 4 3 3 3 3 3 3 2 2 2 2 3
8 8 8 7 7 7 7 7 7 7 6 6 6 5 5 5 5 4 4 4 4 4 4 4 3 3 3 3 4 3 3 3 2 2 3 2 3 3 2 2 3 2 2
7 6 7 7 8 8 7 7 7 7 6 6 6 5 5 5 5 4 4 4 4 4 4 4 3 3 3 3 3 3 3 2 2 2 2 2 3 3 2 3 2 2 2
7 7 7 7 7 7 7 7 7 6 7 6 6 6 5 5 5 4 4 4 4 4 4 3 3 4 4 3 3 4 4 3 2 2 2 2 2 2 2 2 2 2 3
7 8 8 7 7 7 7 7 7 7 7 7 6 6 5 5 5 5 4 4 4 5 4 4 3 3 3 3 4 4 4 3 2 2 1 1 2 3 3 2 2 3 2
8 8 8 8 8 8 8 8 8 8 8 8 7 6 6 5 5 5 5 5 4 4 4 4 4 3 3 5 7 6 4 3 3 2 1 2 2 3 5 5 4 4 4
8 8 8 8 8 8 8 9 8 7 7 7 6 6 6 6 6 6 6 5 4 4 4 3 3 3 2 5 7 7 4 3 3 2 2 1 2 2 2 4 5 4 3
7 8 7 7 6 6 6 7 7 7 7 7 6 6 6 6 6 6 6 5 4 4 4 3 3 3 2 5 6 7 4 3 2 2 2 2 1 1 3 3 3 2 2
8 8 8 7 6 6 7 7 7 7 7 7 7 7 7 7 6 6 6 4 4 4 4 3 3 3 2 4 6 7 4 3 2 1 1 2 1 1 4 4 2 2 2
5 6 5 5 6 6 7 8 7 7 7 7 7 7 7 7 7 6 5 4 4 4 5 4 3 3 2 4 6 7 4 3 2 1 1 2 2 2 4 4 3 1 1
5 6 6 6 6 7 8 8 7 7 7 6 6 6 6 6 6 5 4 5 5 5 4 4 2 2 2 3 5 6 4 4 2 1 1 1 1 3 3 3 2 2 1
5 6 6 5 4 6 8 8 7 7 6 6 6 6 5 5 5 5 4 5 5 5 4 3 2 1 1 1 3 5 5 5 3 2 1 0 2 3 3 2 2 4 4
5 5 6 5 3 4 7 8 6 6 6 6 6 6 5 4 5 6 5 4 4 4 4 3 3 1 0 0 2 4 5 5 3 2 3 2 3 3 3 3 4 4 3
5 5 6 6 4 4 5 6 6 6 7 7 6 6 6 5 4 4 4 4 4 4 4 4 3 2 1 1 1 1 2 3 3 2 2 4 4 4 3 3 3 2 1
4 5 6 6 5 5 4 5 6 8 7 7 6 5 5 5 4 3 3 4 3 5 6 4 4 4 3 4 5 4 3 3 3 3 3 2 2 2 2 2 2 1 1
4 5 5 5 5 5 5 5 6 8 8 6 6 5 4 4 4 4 2 2 2 3 5 6 5 4 4 5 6 6 5 6 7 5 2 2 1 1 0 0 1 1 1
Wind_Direction
193 173 162 159 148 145 145 144 139 133 118 106 104 96 81 64 56 54 68 76 81 86 86 84 70 71 80 83 88 87 70 49 57 73 47 26 31 42 40 43 53 52 58
175 171 169 163 161 161 159 154 149 143 135 138 137 133 127 101 86 56 59 63 80 88 100 99 89 81 85 73 71 87 84 45 48 98 85 37 12 13 23 29 51 54 55
179 181 177 174 166 166 166 161 160 157 150 135 107 86 65 53 45 41 39 34 76 87 99 101 97 88 93 94 89 102 111 99 25 70 129 132 175 339 358 16 29 37 50
179 177 176 176 175 173 163 155 155 151 147 135 127 131 126 129 156 132 74 52 67 86 95 98 99 96 93 96 98 105 116 118 96 21 48 134 152 142 50 354 2 20 40
181 179 181 179 172 166 162 158 154 149 149 146 145 136 132 145 131 96 86 63 51 70 90 96 98 98 93 97 94 88 92 104 121 116 82 67 65 92 128 121 343 4 8
180 179 176 162 156 155 156 153 151 154 156 151 149 144 145 143 132 125 119 83 50 50 67 89 93 98 100 100 98 96 93 92 95 93 93 117 115 132 125 131 110 23 353
175 170 165 161 162 161 161 160 156 162 167 158 158 158 156 154 156 155 151 136 101 72 57 86 97 98 105 103 96 91 83 82 88 91 85 84 106 147 130 122 123 74 353
175 175 173 173 173 171 167 164 163 166 168 164 162 160 156 152 155 159 155 153 152 159 138 105 105 106 102 99 91 85 82 79 79 77 83 76 52 79 122 139 134 95 24
179 178 173 175 174 174 173 169 165 167 171 167 159 159 158 155 154 152 144 148 154 142 128 114 103 94 92 96 95 84 74 80 76 74 78 76 54 55 68 103 134 137 125
180 175 173 177 178 175 169 166 167 170 168 164 165 163 163 161 153 144 149 148 147 131 126 115 108 100 93 95 93 85 76 81 72 73 73 63 49 53 55 76 88 116 136
180 175 177 179 172 161 160 163 166 164 162 163 161 155 161 157 146 148 157 152 147 138 131 129 124 116 106 102 102 98 95 91 74 64 75 63 57 59 45 58 73 83 109
174 172 173 170 165 166 169 167 168 168 167 161 155 156 153 147 143 149 155 148 146 142 138 132 128 127 119 112 115 115 99 98 90 76 76 62 69 62 50 65 68 75 100
161 163 168 173 174 175 175 171 170 170 161 152 150 149 151 152 154 154 148 145 140 130 125 130 136 134 125 119 120 123 110 105 113 113 106 92 89 71 61 70 71 69 74
164 167 173 179 180 179 176 173 173 168 160 154 154 157 163 163 160 153 146 147 139 130 133 139 144 137 129 124 123 121 110 101 97 104 112 114 122 129 111 88 87 90 80
168 173 177 180 180 178 175 173 171 169 165 160 163 171 168 159 151 149 145 141 137 137 138 129 125 128 128 134 131 125 121 117 102 82 81 95 115 122 118 113 121 110 99
180 181 178 178 181 180 177 173 172 172 164 164 171 168 159 155 153 153 145 135 132 130 122 122 129 127 132 136 137 134 127 126 127 120 85 70 66 80 84 91 107 127 130
183 181 182 183 185 183 177 176 175 166 160 163 164 165 161 159 161 156 143 141 142 133 125 125 127 126 135 132 132 133 127 126 132 135 130 102 77 80 87 74 68 68 97
184 183 184 184 182 174 168 163 160 161 162 161 164 169 166 164 158 153 152 154 149 145 142 144 140 129 131 131 128 126 114 110 109 124 142 133 108 119 123 101 66 40 23
183 182 182 176 169 166 160 149 151 157 160 165 171 175 168 162 159 162 164 161 151 149 148 145 137 129 122 124 127 119 110 103 92 89 105 121 126 135 124 110 91 42 1
171 169 162 157 161 165 154 150 157 162 173 176 174 169 164 161 163 167 163 156 151 150 141 134 137 139 140 127 128 127 121 115 101 60 42 72 100 121 124 125 122 97 325
156 151 148 158 172 165 156 156 160 176 181 170 163 160 161 162 160 153 149 146 141 136 136 132 126 131 145 134 132 135 138 149 140 115 19 344 66 94 113 123 138 161 145
139 144 146 154 161 160 157 159 172 179 164 153 151 153 152 156 152 141 141 141 139 137 140 133 119 92 131 133 142 142 145 144 142 159 185 140 101 93 91 94 84 85 87
140 145 143 139 142 158 157 160 173 160 146 143 147 145 139 135 137 140 141 138 141 144 150 149 153 163 144 135 135 135 139 143 137 147 140 115 93 85 69 62 72 81 83
138 138 135 137 147 157 158 159 155 149 144 147 147 144 138 133 130 133 141 147 156 158 160 161 165 164 154 166 156 139 131 129 122 111 105 94 87 78 60 48 51 63 94
130 134 140 144 155 160 158 149 147 144 143 146 147 147 143 142 136 133 147 162 180 179 173 180 175 169 187 208 178 157 155 154 142 116 79 62 54 46 31 25 22 32 46
128 129 132 137 147 144 147 149 149 147 146 147 150 148 143 141 140 136 106 67 125 164 175 177 172 182 184 169 159 155 146 140 133 117 110 113 113 125 130 65 358 358 351